Time,TemperatureF,DewpointF,PressureIn,WindDirection,WindDirectionDegrees,WindSpeedMPH,WindSpeedGustMPH,Humidity,HourlyPrecipIn,Conditions,Clouds,dailyrainin,SoftwareType,DateUTC
2013-03-08 00:00:00,26.0,-99.9,-100.00,North,-999,-999.0,-999.0,-999,-99.99,,,0.49,,2013-03-08 07:00:00,
2013-03-08 00:52:00,26.0,-99.9,-100.00,North,-999,-999.0,-999.0,-999,-99.99,,,0.49,,2013-03-08 07:52:00,
2013-03-08 01:00:00,25.0,-99.9,-100.00,North,-999,-999.0,-999.0,-999,-99.99,,,0.48,,2013-03-08 08:00:00,
2013-03-08 01:52:00,25.0,-99.9,-100.00,North,-999,-999.0,-999.0,-999,-99.99,,,0.48,,2013-03-08 08:52:00,
2013-03-08 02:00:00,24.0,-99.9,-100.00,North,-999,-999.0,-999.0,-999,-99.99,,,0.48,,2013-03-08 09:00:00,
2013-03-08 03:00:00,25.0,-99.9,-100.00,North,-999,-999.0,-999.0,-999,-99.99,,,0.47,,2013-03-08 10:00:00,
2013-03-08 04:00:00,24.0,-99.9,-100.00,North,-999,-999.0,-999.0,-999,-99.99,,,0.46,,2013-03-08 11:00:00,
2013-03-08 04:53:00,24.0,-99.9,-100.00,North,-999,-999.0,-999.0,-999,-99.99,,,0.46,,2013-03-08 11:53:00,
2013-03-08 05:00:00,24.0,-99.9,-100.00,North,-999,-999.0,-999.0,-999,-99.99,,,0.44,,2013-03-08 12:00:00,
2013-03-08 05:53:00,24.0,-99.9,-100.00,North,-999,-999.0,-999.0,-999,-99.99,,,0.44,,2013-03-08 12:53:00,
2013-03-08 06:00:00,24.0,-99.9,-100.00,North,-999,-999.0,-999.0,-999,-99.99,,,0.43,,2013-03-08 13:00:00,
2013-03-08 06:52:00,24.0,-99.9,-100.00,North,-999,-999.0,-999.0,-999,-99.99,,,0.43,,2013-03-08 13:52:00,
2013-03-08 07:00:00,24.0,-99.9,-100.00,North,-999,-999.0,-999.0,-999,-99.99,,,-99.99,,2013-03-08 14:00:00,
2013-03-08 07:53:00,24.0,-99.9,-100.00,North,-999,-999.0,-999.0,-999,-99.99,,,-99.99,,2013-03-08 14:53:00,
2013-03-08 08:00:00,25.0,-99.9,-100.00,North,-999,-999.0,-999.0,-999,-99.99,,,0.53,,2013-03-08 15:00:00,
2013-03-08 09:00:00,26.0,-99.9,-100.00,North,-999,-999.0,-999.0,-999,-99.99,,,-99.99,,2013-03-08 16:00:00,
2013-03-08 09:52:00,26.0,-99.9,-100.00,North,-999,-999.0,-999.0,-999,-99.99,,,-99.99,,2013-03-08 16:52:00,
2013-03-08 10:00:00,28.0,-99.9,-100.00,North,-999,-999.0,-999.0,-999,-99.99,,,-99.99,,2013-03-08 17:00:00,
2013-03-08 10:53:00,28.0,-99.9,-100.00,North,-999,-999.0,-999.0,-999,-99.99,,,-99.99,,2013-03-08 17:53:00,
2013-03-08 11:00:00,31.0,-99.9,-100.00,North,-999,-999.0,-999.0,-999,-99.99,,,0.01,,2013-03-08 18:00:00,
2013-03-08 12:00:00,30.0,-99.9,-100.00,North,-999,-999.0,-999.0,-999,-99.99,,,0.00,,2013-03-08 19:00:00,
2013-03-08 12:52:00,30.0,-99.9,-100.00,North,-999,-999.0,-999.0,-999,-99.99,,,0.00,,2013-03-08 19:52:00,
2013-03-08 13:00:00,30.0,-99.9,-100.00,North,-999,-999.0,-999.0,-999,-99.99,,,0.01,,2013-03-08 20:00:00,
2013-03-08 13:53:00,30.0,-99.9,-100.00,North,-999,-999.0,-999.0,-999,-99.99,,,0.01,,2013-03-08 20:53:00,
2013-03-08 14:00:00,28.0,-99.9,-100.00,North,-999,-999.0,-999.0,-999,-99.99,,,0.01,,2013-03-08 21:00:00,
2013-03-08 14:52:00,28.0,-99.9,-100.00,North,-999,-999.0,-999.0,-999,-99.99,,,0.01,,2013-03-08 21:52:00,
2013-03-08 15:00:00,27.0,-99.9,-100.00,North,-999,-999.0,-999.0,-999,-99.99,,,0.01,,2013-03-08 22:00:00,
2013-03-08 15:53:00,27.0,-99.9,-100.00,North,-999,-999.0,-999.0,-999,-99.99,,,0.01,,2013-03-08 22:53:00,
2013-03-08 16:00:00,29.0,-99.9,-100.00,North,-999,-999.0,-999.0,-999,-99.99,,,0.00,,2013-03-08 23:00:00,
2013-03-08 16:53:00,29.0,-99.9,-100.00,North,-999,-999.0,-999.0,-999,-99.99,,,0.00,,2013-03-08 23:53:00,
2013-03-08 17:00:00,28.0,-99.9,-100.00,North,-999,-999.0,-999.0,-999,-99.99,,,0.01,,2013-03-09 00:00:00,
2013-03-08 17:52:00,28.0,-99.9,-100.00,North,-999,-999.0,-999.0,-999,-99.99,,,0.01,,2013-03-09 00:52:00,
2013-03-08 20:00:00,21.0,-99.9,-100.00,North,-999,-999.0,-999.0,-999,-99.99,,,0.01,,2013-03-09 03:00:00,
2013-03-08 20:52:00,21.0,-99.9,-100.00,North,-999,-999.0,-999.0,-999,-99.99,,,0.01,,2013-03-09 03:52:00,
2013-03-08 21:00:00,23.0,-99.9,-100.00,North,-999,-999.0,-999.0,-999,-99.99,,,0.01,,2013-03-09 04:00:00,
2013-03-08 21:52:00,23.0,-99.9,-100.00,North,-999,-999.0,-999.0,-999,-99.99,,,0.01,,2013-03-09 04:52:00,
2013-03-08 22:00:00,21.0,-99.9,-100.00,North,-999,-999.0,-999.0,-999,-99.99,,,0.01,,2013-03-09 05:00:00,
2013-03-08 22:53:00,21.0,-99.9,-100.00,North,-999,-999.0,-999.0,-999,-99.99,,,0.01,,2013-03-09 05:53:00,
2013-03-08 23:00:00,20.0,-99.9,-100.00,North,-999,-999.0,-999.0,-999,-99.99,,,0.01,,2013-03-09 06:00:00,